Saint Bonnet de Bellac- Haute Vienne - France
Donnes mto: dimanche, 04/11/2012
Date Horaire Temp. E. Hum. E. P.atmo. Pluie Vent Direction Direction Ensoleilleme Solaire P. de rose Temp au vent Rafales
04/11/2012 00:00 9,4 C 94 % 1005,2 hPa 0,0 mm 0,4 km/h (0 Bft) S-SE 157 0 min 0 W/m 8,5 C 9,4 C 0,4 km/h (0 Bft)
04/11/2012 00:15 9,4 C 94 % 1005,3 hPa 0,0 mm 0,0 km/h (0 Bft) S 180 0 min 0 W/m 8,5 C 9,4 C 0,0 km/h (0 Bft)
04/11/2012 00:30 9,3 C 94 % 1005,2 hPa 0,0 mm 0,4 km/h (0 Bft) O 270 0 min 0 W/m 8,4 C 9,3 C 3,2 km/h (1 Bft)
04/11/2012 00:45 9,3 C 94 % 1005,1 hPa 0,0 mm 0,0 km/h (0 Bft) S 180 0 min 0 W/m 8,4 C 9,3 C 0,0 km/h (0 Bft)
04/11/2012 01:00 9,3 C 94 % 1005,0 hPa 0,1 mm 3,2 km/h (1 Bft) S 180 0 min 0 W/m 8,4 C 9,3 C 4,0 km/h (1 Bft)
04/11/2012 01:15 9,3 C 94 % 1004,8 hPa 0,0 mm 1,4 km/h (1 Bft) S-SE 157 0 min 0 W/m 8,4 C 9,3 C 3,2 km/h (1 Bft)
04/11/2012 01:30 9,3 C 94 % 1004,5 hPa 0,0 mm 2,5 km/h (1 Bft) SE 135 0 min 0 W/m 8,4 C 9,3 C 4,0 km/h (1 Bft)
04/11/2012 01:45 9,4 C 94 % 1004,3 hPa 0,0 mm 0,0 km/h (0 Bft) E-SE 112 0 min 0 W/m 8,5 C 9,4 C 2,9 km/h (1 Bft)
04/11/2012 02:02 9,3 C 94 % 1004,2 hPa 0,0 mm 0,0 km/h (0 Bft) E-SE 112 0 min 0 W/m 8,4 C 9,3 C 0,0 km/h (0 Bft)
04/11/2012 02:15 9,3 C 94 % 1004,2 hPa 0,0 mm 0,0 km/h (0 Bft) E-SE 112 0 min 0 W/m 8,4 C 9,3 C 0,0 km/h (0 Bft)
04/11/2012 02:30 9,3 C 94 % 1004,2 hPa 0,0 mm 0,0 km/h (0 Bft) E-SE 112 0 min 0 W/m 8,4 C 9,3 C 0,0 km/h (0 Bft)
04/11/2012 02:45 9,3 C 94 % 1004,3 hPa 0,1 mm 0,0 km/h (0 Bft) E-SE 112 0 min 0 W/m 8,4 C 9,3 C 0,0 km/h (0 Bft)
04/11/2012 03:00 9,3 C 94 % 1004,3 hPa 0,0 mm 0,0 km/h (0 Bft) E-SE 112 0 min 0 W/m 8,4 C 9,3 C 0,0 km/h (0 Bft)
04/11/2012 03:15 9,3 C 94 % 1004,1 hPa 0,1 mm 0,0 km/h (0 Bft) E-SE 112 0 min 0 W/m 8,4 C 9,3 C 0,0 km/h (0 Bft)
04/11/2012 03:30 9,2 C 94 % 1003,8 hPa 0,1 mm 0,0 km/h (0 Bft) E-SE 112 0 min 0 W/m 8,3 C 9,2 C 0,0 km/h (0 Bft)
04/11/2012 03:45 9,2 C 94 % 1003,8 hPa 0,1 mm 0,4 km/h (0 Bft) SE 135 0 min 0 W/m 8,3 C 9,2 C 0,4 km/h (0 Bft)
04/11/2012 04:00 9,2 C 94 % 1003,4 hPa 0,1 mm 7,2 km/h (2 Bft) S-SO 202 0 min 0 W/m 8,3 C 8,2 C 12,6 km/h (3 Bft)
04/11/2012 04:15 9,1 C 94 % 1002,9 hPa 0,0 mm 4,7 km/h (1 Bft) S 180 0 min 0 W/m 8,2 C 8,8 C 4,7 km/h (1 Bft)
04/11/2012 04:30 9,0 C 94 % 1002,6 hPa 0,1 mm 6,1 km/h (2 Bft) S-SE 157 0 min 0 W/m 8,1 C 8,3 C 11,2 km/h (2 Bft)
04/11/2012 04:45 9,0 C 94 % 1002,6 hPa 0,0 mm 1,4 km/h (1 Bft) E-SE 112 0 min 0 W/m 8,1 C 9,0 C 4,3 km/h (1 Bft)
04/11/2012 05:00 9,0 C 94 % 1002,5 hPa 0,0 mm 0,0 km/h (0 Bft) SE 135 0 min 0 W/m 8,1 C 9,0 C 0,0 km/h (0 Bft)
04/11/2012 05:15 9,1 C 94 % 1002,2 hPa 0,0 mm 1,1 km/h (1 Bft) E-SE 112 0 min 0 W/m 8,2 C 9,1 C 2,9 km/h (1 Bft)
04/11/2012 05:30 9,1 C 94 % 1002,2 hPa 0,0 mm 0,0 km/h (0 Bft) SE 135 0 min 0 W/m 8,2 C 9,1 C 0,0 km/h (0 Bft)
04/11/2012 05:45 9,2 C 94 % 1002,2 hPa 0,0 mm 0,0 km/h (0 Bft) SE 135 0 min 0 W/m 8,3 C 9,2 C 0,0 km/h (0 Bft)
04/11/2012 06:00 9,3 C 94 % 1002,0 hPa 0,0 mm 0,0 km/h (0 Bft) SE 135 0 min 0 W/m 8,4 C 9,3 C 0,0 km/h (0 Bft)
04/11/2012 06:15 9,3 C 94 % 1002,1 hPa 0,0 mm 0,0 km/h (0 Bft) S-SE 157 0 min 0 W/m 8,4 C 9,3 C 0,0 km/h (0 Bft)
04/11/2012 06:30 9,4 C 95 % 1002,0 hPa 0,0 mm 1,4 km/h (1 Bft) S-SO 202 0 min 0 W/m 8,6 C 9,4 C 5,4 km/h (2 Bft)
04/11/2012 06:45 9,7 C 95 % 1001,9 hPa 0,0 mm 2,9 km/h (1 Bft) SO 225 0 min 0 W/m 8,9 C 9,7 C 2,9 km/h (1 Bft)
04/11/2012 07:00 10,0 C 95 % 1001,8 hPa 0,0 mm 6,5 km/h (2 Bft) S 180 0 min 0 W/m 9,2 C 9,3 C 11,5 km/h (2 Bft)
04/11/2012 07:15 10,3 C 94 % 1001,6 hPa 0,0 mm 7,6 km/h (2 Bft) S-SO 202 0 min 0 W/m 9,4 C 10,3 C 12,2 km/h (2 Bft)
04/11/2012 07:30 10,4 C 94 % 1001,7 hPa 0,0 mm 5,0 km/h (1 Bft) S-SO 202 0 min 0 W/m 9,5 C 10,4 C 8,3 km/h (2 Bft)
04/11/2012 07:45 10,4 C 93 % 1001,6 hPa 0,0 mm 6,8 km/h (2 Bft) SO 225 0 min 0 W/m 9,3 C 10,4 C 6,8 km/h (2 Bft)
04/11/2012 08:00 10,4 C 93 % 1001,8 hPa 0,0 mm 7,9 km/h (2 Bft) S-SO 202 0 min 0 W/m 9,3 C 10,4 C 10,8 km/h (2 Bft)
04/11/2012 08:15 10,3 C 93 % 1002,0 hPa 0,0 mm 4,0 km/h (1 Bft) S-SO 202 0 min 0 W/m 9,2 C 10,3 C 7,9 km/h (2 Bft)
04/11/2012 08:30 10,3 C 93 % 1002,0 hPa 0,0 mm 6,5 km/h (2 Bft) SO 225 0 min 0 W/m 9,2 C 10,3 C 10,8 km/h (2 Bft)
04/11/2012 08:45 10,4 C 93 % 1002,2 hPa 0,0 mm 5,4 km/h (2 Bft) S-SO 202 0 min 0 W/m 9,3 C 10,4 C 6,5 km/h (2 Bft)
04/11/2012 09:00 10,5 C 92 % 1002,3 hPa 0,0 mm 5,4 km/h (2 Bft) S-SO 202 0 min 0 W/m 9,3 C 10,5 C 9,0 km/h (2 Bft)
04/11/2012 09:15 10,6 C 91 % 1002,4 hPa 0,0 mm 6,8 km/h (2 Bft) S-SO 202 0 min 0 W/m 9,2 C 10,6 C 10,8 km/h (2 Bft)
04/11/2012 09:30 10,8 C 90 % 1002,5 hPa 0,0 mm 6,1 km/h (2 Bft) S-SO 202 0 min 0 W/m 9,2 C 10,8 C 10,4 km/h (2 Bft)
04/11/2012 09:45 10,9 C 90 % 1002,6 hPa 0,0 mm 7,2 km/h (2 Bft) SO 225 0 min 0 W/m 9,3 C 10,9 C 11,2 km/h (2 Bft)
04/11/2012 10:00 11,1 C 90 % 1002,7 hPa 0,0 mm 8,6 km/h (2 Bft) O 270 0 min 0 W/m 9,5 C 11,1 C 9,4 km/h (2 Bft)
04/11/2012 10:15 11,3 C 90 % 1002,8 hPa 0,0 mm 12,2 km/h (2 Bft) SO 225 0 min 0 W/m 9,7 C 11,3 C 17,6 km/h (3 Bft)
04/11/2012 10:30 11,5 C 89 % 1003,0 hPa 0,0 mm 9,4 km/h (2 Bft) S-SO 202 0 min 0 W/m 9,8 C 11,5 C 11,5 km/h (2 Bft)
04/11/2012 10:45 11,5 C 88 % 1003,1 hPa 0,0 mm 10,4 km/h (2 Bft) SO 225 0 min 0 W/m 9,6 C 11,5 C 15,1 km/h (3 Bft)
04/11/2012 11:00 11,5 C 88 % 1003,4 hPa 0,0 mm 7,6 km/h (2 Bft) S-SO 202 0 min 0 W/m 9,6 C 11,5 C 10,8 km/h (2 Bft)
04/11/2012 11:15 11,4 C 90 % 1003,4 hPa 0,0 mm 6,8 km/h (2 Bft) SO 225 0 min 0 W/m 9,8 C 11,4 C 9,4 km/h (2 Bft)
04/11/2012 11:30 11,4 C 90 % 1003,2 hPa 0,0 mm 6,1 km/h (2 Bft) SO 225 0 min 0 W/m 9,8 C 11,4 C 7,2 km/h (2 Bft)
04/11/2012 11:45 11,6 C 90 % 1003,3 hPa 0,0 mm 4,7 km/h (1 Bft) S-SO 202 0 min 0 W/m 10,0 C 11,6 C 6,1 km/h (2 Bft)
04/11/2012 12:00 11,8 C 88 % 1003,3 hPa 0,0 mm 7,2 km/h (2 Bft) S-SE 157 0 min 0 W/m 9,9 C 11,8 C 10,4 km/h (2 Bft)
04/11/2012 12:15 11,8 C 87 % 1003,2 hPa 0,0 mm 14,4 km/h (3 Bft) O 270 0 min 0 W/m 9,7 C 11,8 C 20,5 km/h (4 Bft)
04/11/2012 12:30 12,0 C 86 % 1003,2 hPa 0,0 mm 11,5 km/h (2 Bft) SO 225 0 min 0 W/m 9,7 C 12,0 C 11,5 km/h (2 Bft)
04/11/2012 12:45 12,1 C 86 % 1003,0 hPa 0,0 mm 7,2 km/h (2 Bft) SO 225 0 min 0 W/m 9,8 C 12,1 C 14,4 km/h (3 Bft)
04/11/2012 13:00 12,1 C 86 % 1003,1 hPa 0,0 mm 7,9 km/h (2 Bft) SO 225 0 min 0 W/m 9,8 C 12,1 C 13,7 km/h (3 Bft)
04/11/2012 13:15 12,1 C 86 % 1002,9 hPa 0,0 mm 3,2 km/h (1 Bft) SO 225 0 min 0 W/m 9,8 C 12,1 C 6,5 km/h (2 Bft)
04/11/2012 13:30 12,0 C 86 % 1003,0 hPa 0,0 mm 1,8 km/h (1 Bft) O-SO 247 0 min 0 W/m 9,7 C 12,0 C 2,9 km/h (1 Bft)
04/11/2012 13:45 11,5 C 86 % 1003,0 hPa 0,3 mm 4,0 km/h (1 Bft) SO 225 0 min 0 W/m 9,2 C 11,5 C 4,3 km/h (1 Bft)
04/11/2012 14:00 10,8 C 89 % 1002,9 hPa 0,3 mm 2,9 km/h (1 Bft) SO 225 0 min 0 W/m 9,1 C 10,8 C 2,9 km/h (1 Bft)
04/11/2012 14:15 10,4 C 91 % 1002,9 hPa 0,0 mm 1,4 km/h (1 Bft) SO 225 0 min 0 W/m 9,0 C 10,4 C 4,0 km/h (1 Bft)
04/11/2012 14:30 10,3 C 92 % 1002,8 hPa 0,1 mm 2,9 km/h (1 Bft) S-SO 202 0 min 0 W/m 9,1 C 10,3 C 4,7 km/h (1 Bft)
04/11/2012 14:45 10,3 C 93 % 1002,9 hPa 0,0 mm 5,0 km/h (1 Bft) S-SO 202 0 min 0 W/m 9,2 C 10,3 C 5,0 km/h (1 Bft)
04/11/2012 15:00 10,3 C 93 % 1002,8 hPa 0,0 mm 4,0 km/h (1 Bft) SO 225 0 min 0 W/m 9,2 C 10,3 C 10,4 km/h (2 Bft)
04/11/2012 15:15 10,4 C 92 % 1002,9 hPa 0,0 mm 6,5 km/h (2 Bft) S-SO 202 0 min 0 W/m 9,2 C 10,4 C 9,4 km/h (2 Bft)
04/11/2012 15:30 10,4 C 93 % 1002,9 hPa 0,0 mm 5,8 km/h (2 Bft) S-SO 202 0 min 0 W/m 9,3 C 10,4 C 5,8 km/h (2 Bft)
04/11/2012 15:45 10,4 C 92 % 1002,9 hPa 0,0 mm 3,6 km/h (1 Bft) SO 225 0 min 0 W/m 9,2 C 10,4 C 4,3 km/h (1 Bft)
04/11/2012 16:00 10,3 C 93 % 1003,0 hPa 0,0 mm 4,0 km/h (1 Bft) S 180 0 min 0 W/m 9,2 C 10,3 C 8,6 km/h (2 Bft)
04/11/2012 16:15 10,4 C 93 % 1002,9 hPa 0,0 mm 5,0 km/h (1 Bft) S-SO 202 0 min 0 W/m 9,3 C 10,4 C 7,2 km/h (2 Bft)
04/11/2012 16:30 10,3 C 93 % 1003,1 hPa 0,0 mm 3,6 km/h (1 Bft) S-SO 202 0 min 0 W/m 9,2 C 10,3 C 6,5 km/h (2 Bft)
04/11/2012 16:45 10,3 C 93 % 1003,1 hPa 0,0 mm 5,8 km/h (2 Bft) SO 225 0 min 0 W/m 9,2 C 10,3 C 12,2 km/h (2 Bft)
04/11/2012 17:00 10,1 C 93 % 1003,1 hPa 0,0 mm 4,3 km/h (1 Bft) S-SO 202 0 min 0 W/m 9,0 C 10,1 C 7,6 km/h (2 Bft)
04/11/2012 17:15 10,0 C 93 % 1003,1 hPa 0,0 mm 1,8 km/h (1 Bft) S-SO 202 0 min 0 W/m 8,9 C 10,0 C 4,3 km/h (1 Bft)
04/11/2012 17:30 9,9 C 93 % 1003,2 hPa 0,0 mm 3,2 km/h (1 Bft) SO 225 0 min 0 W/m 8,8 C 9,9 C 6,1 km/h (2 Bft)
04/11/2012 17:45 9,8 C 93 % 1003,2 hPa 0,0 mm 2,2 km/h (1 Bft) SO 225 0 min 0 W/m 8,7 C 9,8 C 4,3 km/h (1 Bft)
04/11/2012 18:00 9,7 C 94 % 1003,3 hPa 0,0 mm 0,7 km/h (0 Bft) S-SO 202 0 min 0 W/m 8,8 C 9,7 C 4,0 km/h (1 Bft)
04/11/2012 18:15 9,6 C 94 % 1003,5 hPa 0,0 mm 2,5 km/h (1 Bft) S-SO 202 0 min 0 W/m 8,7 C 9,6 C 6,1 km/h (2 Bft)
04/11/2012 18:30 9,5 C 93 % 1003,6 hPa 0,0 mm 3,2 km/h (1 Bft) SO 225 0 min 0 W/m 8,4 C 9,5 C 4,3 km/h (1 Bft)
04/11/2012 18:45 9,3 C 91 % 1003,7 hPa 0,0 mm 1,8 km/h (1 Bft) S-SO 202 0 min 0 W/m 7,9 C 9,3 C 3,6 km/h (1 Bft)
04/11/2012 19:00 9,1 C 92 % 1003,8 hPa 0,0 mm 2,9 km/h (1 Bft) SO 225 0 min 0 W/m 7,9 C 9,1 C 2,9 km/h (1 Bft)
04/11/2012 19:15 8,9 C 93 % 1003,9 hPa 0,0 mm 1,1 km/h (1 Bft) SO 225 0 min 0 W/m 7,8 C 8,9 C 1,1 km/h (1 Bft)
04/11/2012 19:30 8,8 C 93 % 1003,9 hPa 0,0 mm 2,5 km/h (1 Bft) SO 225 0 min 0 W/m 7,7 C 8,8 C 4,3 km/h (1 Bft)
04/11/2012 19:45 8,5 C 93 % 1003,9 hPa 0,0 mm 1,1 km/h (1 Bft) S-SO 202 0 min 0 W/m 7,4 C 8,5 C 1,1 km/h (1 Bft)
04/11/2012 20:00 8,2 C 92 % 1004,0 hPa 0,0 mm 3,6 km/h (1 Bft) S-SO 202 0 min 0 W/m 7,0 C 8,2 C 7,6 km/h (2 Bft)
04/11/2012 20:15 7,9 C 93 % 1004,1 hPa 0,0 mm 3,6 km/h (1 Bft) SO 225 0 min 0 W/m 6,8 C 7,9 C 4,0 km/h (1 Bft)
04/11/2012 20:30 7,9 C 92 % 1004,2 hPa 0,0 mm 4,3 km/h (1 Bft) S-SO 202 0 min 0 W/m 6,7 C 7,9 C 7,9 km/h (2 Bft)
04/11/2012 20:45 7,9 C 92 % 1004,2 hPa 0,1 mm 3,2 km/h (1 Bft) O-SO 247 0 min 0 W/m 6,7 C 7,9 C 3,2 km/h (1 Bft)
04/11/2012 21:00 7,8 C 91 % 1004,2 hPa 0,0 mm 3,6 km/h (1 Bft) SO 225 0 min 0 W/m 6,4 C 7,8 C 8,3 km/h (2 Bft)
04/11/2012 21:15 7,8 C 91 % 1004,1 hPa 0,0 mm 3,6 km/h (1 Bft) SO 225 0 min 0 W/m 6,4 C 7,8 C 6,5 km/h (2 Bft)
04/11/2012 21:30 7,9 C 90 % 1004,3 hPa 0,0 mm 5,8 km/h (2 Bft) S-SO 202 0 min 0 W/m 6,4 C 7,1 C 7,9 km/h (2 Bft)
04/11/2012 21:45 7,8 C 89 % 1004,3 hPa 0,0 mm 5,0 km/h (1 Bft) SO 225 0 min 0 W/m 6,1 C 7,3 C 7,2 km/h (2 Bft)
04/11/2012 22:00 7,8 C 89 % 1004,3 hPa 0,0 mm 5,0 km/h (1 Bft) N 360 0 min 0 W/m 6,1 C 7,3 C 5,0 km/h (1 Bft)
04/11/2012 22:15 7,5 C 89 % 1004,3 hPa 0,0 mm 4,7 km/h (1 Bft) SO 225 0 min 0 W/m 5,8 C 7,0 C 7,2 km/h (2 Bft)
04/11/2012 22:30 7,4 C 89 % 1004,3 hPa 0,0 mm 6,5 km/h (2 Bft) SO 225 0 min 0 W/m 5,7 C 6,3 C 6,5 km/h (2 Bft)
04/11/2012 22:45 7,5 C 89 % 1004,2 hPa 0,0 mm 5,8 km/h (2 Bft) SO 225 0 min 0 W/m 5,8 C 6,7 C 8,3 km/h (2 Bft)
04/11/2012 23:00 7,6 C 89 % 1004,3 hPa 0,0 mm 5,0 km/h (1 Bft) S-SO 202 0 min 0 W/m 5,9 C 7,0 C 5,0 km/h (1 Bft)
04/11/2012 23:15 7,8 C 89 % 1004,4 hPa 0,0 mm 3,6 km/h (1 Bft) S-SO 202 0 min 0 W/m 6,1 C 7,8 C 4,0 km/h (1 Bft)
04/11/2012 23:30 7,9 C 89 % 1004,6 hPa 0,0 mm 3,6 km/h (1 Bft) SO 225 0 min 0 W/m 6,2 C 7,9 C 4,3 km/h (1 Bft)
04/11/2012 23:45 7,9 C 91 % 1004,6 hPa 0,1 mm 8,6 km/h (2 Bft) S-SO 202 0 min 0 W/m 6,5 C 6,4 C 13,0 km/h (3 Bft)
_ Min-Heure 22:30 13:45 07:45 - 06:15 - - - - 22:30 22:30 06:15
Minimum _ 7,4 C 86 % 1001,6 hPa - 0,0 km/h (0 Bft) - - - - 5,7 C 6,3 C 0,0 km/h (0 Bft)
_ Max-Heure 13:15 07:00 00:15 13:45 12:15 - - 23:45 23:45 11:45 13:15 12:15
Maximum _ 12,1 C 95 % 1005,3 hPa 0,3 mm 14,4 km/h
O (3 Bft)
- - 0 min 0 W/m 10,0 C 12,1 C 20,5 km/h
O (4 Bft)
Moyenne _ 9,7 C 92 % 1003,3 hPa #1,2 mm 4,0 km/h (1 Bft) SO - #0 min. 0 W/m 8,5 C 9,6 C 6,2 km/h (2 Bft)
Saint Bonnet de Bellac- Haute Vienne - France